Regional Weather Roundup
Issued by NWS

Home | Current Version | Previous Version | Graphics & Text | Print | Product List | Glossary On
Versions: 1 2 3 4 5 6 7 8 9 10 11 12 13 14 15 16 17 18 19 20 21 22 23 24 25 26 27 28 29 30 31 32 33 34 35 36 37 38 39 40 41 42 43 44 45 46 47 48 49 50
000
ASUS43 KFSD 011202
RWRSD

WEATHER ROUNDUP FOR SOUTH DAKOTA
NATIONAL WEATHER SERVICE SIOUX FALLS SD
700 AM CDT TUE SEP 01 2015

NOTE: "FAIR" INDICATES FEW OR NO CLOUDS BELOW 12,000 FEET WITH NO
SIGNIFICANT WEATHER AND/OR OBSTRUCTIONS TO VISIBILITY.


SDZ001>005-009-010-012>017-011300-
NORTHWEST AND NORTH CENTRAL SOUTH DAKOTA

CITY           SKY/WX    TMP DP  RH WIND       PRES   REMARKS
BUFFALO          N/A     54  53  97 SW3       29.83S
FAITH            N/A     61  57  87 SE8       29.88R
MOBRIDGE       CLEAR     58  58 100 E5        29.86S
$$

SDZ012>016-024>037-041>051-057-063-072>074-011300-
SOUTHWEST AND SOUTH CENTRAL SOUTH DAKOTA

CITY           SKY/WX    TMP DP  RH WIND       PRES   REMARKS
RAPID CTY ARPT CLEAR     53  52  96 CALM      29.88F
PIERRE         PTCLDY    59  58  96 NE5       29.85S
CUSTER         CLEAR     55  42  61 CALM      30.04R
ELLSWORTH AFB  CLEAR     57  56  98 NW2       29.87S
PHILIP         PTCLDY    59  57  93 E5        29.86S
PINE RIDGE     CLEAR     59  51  75 SW3       29.92S
WINNER         FAIR      65  61  87 SE7       29.87S
$$

SDZ004>011-016>023-039-040-011300-
NORTHEAST SOUTH DAKOTA

CITY           SKY/WX    TMP DP  RH WIND       PRES   REMARKS
ABERDEEN       FOG       57  56  96 E5        29.88F VSB 1
WATERTOWN      MOCLDY    67  64  90 VRB3      29.90S
BROOKINGS      CLOUDY    68  64  88 NE3       29.92R
$$

SDZ017-020-022-023-036>040-048>070-011300-
SOUTHEAST SOUTH DAKOTA

CITY           SKY/WX    TMP DP  RH WIND       PRES   REMARKS
SIOUX FALLS    CLOUDY    68  66  93 E3        29.89S FOG
HURON          MOCLDY    62  61  96 NE3       29.86S
CHAMBERLAIN    MOCLDY    63  61  96 CALM      29.87S
MITCHELL       CLOUDY    65  64  97 CALM      29.86F
YANKTON        MOCLDY    66  64  94 E5        29.86R
$$

ABBREVIATIONS USED IN REMARKS
   TC - TEMPERATURE IN CELSIUS
  WCI - WIND CHILL INDEX
   HX - HEAT INDEX
  VSB - VISIBILITY



USA.gov is the U.S. government's official web portal to all federal, state and local government web resources and services.